Location: Thompson
(55.7500°N, 97.8670°W)
Time: 06:31:38
(UTC-05:00)

Cosmos 1666 - Visible Passes

Search period start: 21 April 2018 00:00
Search period end: 01 May 2018 00:00
Orbit: 498 x 525 km, 82.5° (Epoch: 20 April)

Date Brightness Start Highest point End Pass type
(mag) Time Alt. Az. Time Alt. Az. Time Alt. Az.
21 Apr 4.1 01:11:07 10° N 01:14:25 28° ENE 01:14:58 26° E visible
21 Apr 3.6 02:46:39 10° NNW 02:49:54 34° W 02:49:54 34° W visible
22 Apr 4.4 00:54:56 10° N 00:58:03 24° ENE 00:58:48 22° E visible
22 Apr 3.3 02:30:17 10° NNW 02:33:43 41° W 02:33:43 41° W visible
23 Apr 4.6 00:38:47 10° NNE 00:41:41 20° ENE 00:42:38 19° E visible
23 Apr 3.0 02:13:56 10° NNW 02:17:33 51° W 02:17:33 51° W visible
24 Apr 4.8 00:22:40 10° NNE 00:25:18 18° ENE 00:26:28 16° E visible
24 Apr 2.7 01:57:35 10° NNW 02:01:21 62° W 02:01:23 62° WSW visible
25 Apr 4.9 00:06:36 10° NNE 00:08:55 15° ENE 00:10:19 13° E visible
25 Apr 2.5 01:41:16 10° NNW 01:45:04 76° W 01:45:14 74° SW visible
25 Apr 5.1 23:50:37 10° NNE 23:52:31 13° ENE 23:54:10 11° E visible
26 Apr 2.5 01:24:57 10° NNW 01:28:46 89° ENE 01:29:05 75° SSE visible
26 Apr 5.0 03:02:21 10° WNW 03:03:47 12° W 03:04:00 12° W visible
26 Apr 5.2 23:34:46 10° NE 23:36:06 11° NE 23:37:25 10° ENE visible
27 Apr 2.6 01:08:40 10° N 01:12:28 74° ENE 01:12:57 63° SE visible
27 Apr 4.8 02:45:33 10° NW 02:47:36 14° W 02:47:52 14° W visible
28 Apr 2.9 00:52:23 10° N 00:56:10 60° ENE 00:56:49 51° ESE visible
28 Apr 4.7 02:28:55 10° NW 02:31:23 17° W 02:31:44 17° W visible
29 Apr 3.2 00:36:07 10° N 00:39:50 50° ENE 00:40:40 41° ESE visible
29 Apr 4.4 02:12:22 10° NW 02:15:10 20° W 02:15:36 19° W visible
30 Apr 3.5 00:19:52 10° N 00:23:30 41° ENE 00:24:34 33° ESE visible
30 Apr 4.2 01:55:53 10° NW 01:58:56 23° W 01:59:29 23° WSW visible
